495  
ASUS41 KGYX 261110  
RWRGYX  
WEATHER ROUNDUP FOR MAINE AND NEW HAMPSHIRE  
NATIONAL WEATHER SERVICE GRAY ME  
600 AM EST TUE JAN 26 2021  
 
MEZ002-005-006-010-012-015-018-020-021-024-026-027-029-261200-  
MAINE  
 
CITY SKY/WX TMP DP RH WIND PRES REMARKS
 
PORTLAND CLEAR 18 10 71 W3 30.08R  
SANFORD CLEAR 7 4 87 CALM 30.08R  
BAR HARBOR CLEAR 16 12 84 N3 30.04R  
WISCASSET CLEAR 12 8 84 CALM 30.08R  
ROCKLAND CLEAR 22 13 68 VRB3 30.05R  
FRYEBURG CLEAR 2 -1 88 CALM 30.06R  
LEWISTONAUBURN CLEAR 13 7 77 CALM 30.06S  
AUGUSTA CLEAR 13 9 84 NW6 30.06R  
WATERVILLE CLEAR 11 7 84 CALM 30.03R  
BANGOR CLEAR 15 8 73 W3 30.04R  
GREENVILLE N/A 13 6 74 N9 29.96R  
MILLINOCKET CLOUDY 17 10 74 NW6 30.03R  
HOULTON CLOUDY 22 15 75 N8 29.99R  
PRESQUE ISLE CLOUDY 21 16 81 NW5 30.01S  
FRENCHVILLE CLOUDY 18 14 84 NW10 29.97R WCI 6  
CARIBOU CLOUDY 21 14 74 NW8 29.99R  

 
 
NHZ002-005-008-009-011-012-014-261200-  
NEW HAMPSHIRE  
 
CITY SKY/WX TMP DP RH WIND PRES REMARKS
 
PORTSMOUTH PTCLDY 17 11 78 CALM 30.07R  
ROCHESTER CLEAR 17 10 74 CALM 30.06R  
NASHUA CLEAR 13 11 92 CALM 30.08F  
MANCHESTER PTCLDY 19 12 74 N7 30.05F  
CONCORD CLEAR 12 8 84 CALM 30.07S  
LACONIA CLEAR 15 13 91 SW3 30.06S  
PLYMOUTH FAIR 18 14 84 NW6 30.07S  
BERLIN MOCLDY -6 -12 75 CALM 30.06R  
WHITEFIELD CLOUDY 1 -3 83 CALM 30.08S  
JAFFREY CLEAR 10 6 84 CALM 30.01F  
KEENE CLEAR 9 6 88 CALM 30.07F  
LEBANON CLOUDY 13 8 81 CALM 30.09F  
MT WASHINGTON PTCLDY 10 -8 44 NW21 N/A WCI -9  

 
 
VTZ005-007-008-261200-  
VERMONT  
 
CITY SKY/WX TMP DP RH WIND PRES REMARKS
 
ST JOHNSBURY N/A 12 7 80 MISG 30.08S  
MONTPELIER CLOUDY 11 9 92 CALM 30.08F  
BURLINGTON CLOUDY 20 14 77 E3 30.09F  

 
 
MAZ007-012-024-CTZ003-RIZ002-NYZ038-NYZ072-261200-  
SOUTHERN NEW ENGLAND AND NY  
 
CITY SKY/WX TMP DP RH WIND PRES REMARKS
 
BOSTON PTCLDY 23 13 65 NW8 30.09S  
WORCESTER CLEAR 24 12 60 N8 29.99F  
NANTUCKET CLEAR 29 23 78 N12 30.04F WCI 19  
PROVIDENCE MOCLDY 26 14 60 N6 30.07S  
HARTFORD MOCLDY 24 14 65 N7 30.05F  
ALBANY CLOUDY 15 12 88 NW6 30.06F  
NEW YORK CITY MOCLDY 34 16 47 NE12 30.02F  

 
 
ANZ081-ANZ082-ANZ150-NHZ014-MEZ023>029-261200-  
COASTAL MARINE OBSERVATIONS  
 
STATION/POSITION TIME TEMP WIND PRES WAVE
 
AIR SEA DIR/SP/G HT/PER  
(UTC) (F) (DEG/KT/KT) (MB) (FT/S)  
MOUNT DESERT ROC 1100 330/ 18/ 21 1016.0R  
ISLE OF SHOALS 1100 25 330/ 5/ 7 1018.6R  
JEFFREYS LEDGE 1056 43 N/A 3/ 4  
CASHES LEDGE BUO 1050 30 45 350/ 19/ 23 1017.5R 4/ 5  

 
   
............KEY...........
 
 
WCI - WIND CHILL  
TC - TEMPERATURE IN CELSIUS  
VSB - VISIBILITY
IN MILES  
HX - HEAT INDEX  
FAIR- INDICATES FEW OR NO CLOUDS BELOW 12,000 FT, WITH NO  
SIGNIFICANT WEATHER AND/OR S TO VISIBILITY.  
 
 
 
CLICK HERE TO GO TO PREVIOUS BULLETINS.

The Nexlab ME Page
The Nexlab NH Page Main Text Page